Year,Month,Day,Hour,Minute,Value (Times are PST for temperature in C)
2011,08,16,00,00,12.50
2011,08,16,00,01,12.50
2011,08,16,00,02,12.50
2011,08,16,00,03,12.50
2011,08,16,00,04,12.50
2011,08,16,00,05,12.40
2011,08,16,00,06,12.40
2011,08,16,00,07,12.40
2011,08,16,00,08,12.40
2011,08,16,00,09,12.30
2011,08,16,00,10,12.30
2011,08,16,00,11,12.30
2011,08,16,00,12,12.30
2011,08,16,00,13,12.30
2011,08,16,00,14,12.30
2011,08,16,00,15,12.20
2011,08,16,00,16,12.20
2011,08,16,00,17,12.20
2011,08,16,00,18,12.10
2011,08,16,00,19,12.10
2011,08,16,00,20,12.10
2011,08,16,00,21,12.00
2011,08,16,00,22,12.00
2011,08,16,00,23,12.00
2011,08,16,00,24,12.00
2011,08,16,00,25,11.90
2011,08,16,00,26,11.90
2011,08,16,00,27,11.90
2011,08,16,00,28,11.90
2011,08,16,00,29,11.80
2011,08,16,00,30,11.80
2011,08,16,00,31,11.80
2011,08,16,00,32,11.80
2011,08,16,00,33,11.80
2011,08,16,00,34,11.80
2011,08,16,00,35,11.70
2011,08,16,00,36,11.70
2011,08,16,00,37,11.60
2011,08,16,00,38,11.50
2011,08,16,00,39,11.40
2011,08,16,00,40,11.40
2011,08,16,00,41,11.40
2011,08,16,00,42,11.30
2011,08,16,00,43,11.30
2011,08,16,00,44,11.30
2011,08,16,00,45,11.30
2011,08,16,00,46,11.20
2011,08,16,00,47,11.20
2011,08,16,00,48,11.20
2011,08,16,00,49,11.20
2011,08,16,00,50,11.20
2011,08,16,00,51,11.20
2011,08,16,00,52,11.10
2011,08,16,00,53,11.10
2011,08,16,00,54,11.10
2011,08,16,00,55,11.10
2011,08,16,00,56,11.10
2011,08,16,00,57,11.10
2011,08,16,00,58,11.10
2011,08,16,00,59,11.10
2011,08,16,01,00,11.10
2011,08,16,01,01,11.00
2011,08,16,01,02,10.90
2011,08,16,01,03,10.90
2011,08,16,01,04,10.80
2011,08,16,01,05,10.80
2011,08,16,01,06,10.80
2011,08,16,01,07,10.70
2011,08,16,01,08,10.70
2011,08,16,01,09,10.70
2011,08,16,01,10,10.70
2011,08,16,01,11,10.70
2011,08,16,01,12,10.70
2011,08,16,01,13,10.60
2011,08,16,01,14,10.60
2011,08,16,01,15,10.60
2011,08,16,01,16,10.60
2011,08,16,01,17,10.60
2011,08,16,01,18,10.60
2011,08,16,01,19,10.60
2011,08,16,01,20,10.60
2011,08,16,01,21,10.60
2011,08,16,01,22,10.60
2011,08,16,01,23,10.50
2011,08,16,01,24,10.40
2011,08,16,01,25,10.40
2011,08,16,01,26,10.40
2011,08,16,01,27,10.40
2011,08,16,01,28,10.40
2011,08,16,01,29,10.40
2011,08,16,01,30,10.40
2011,08,16,01,31,10.40
2011,08,16,01,32,10.40
2011,08,16,01,33,10.40
2011,08,16,01,34,10.40
2011,08,16,01,35,10.40
2011,08,16,01,36,10.40
2011,08,16,01,37,10.40
2011,08,16,01,38,10.40
2011,08,16,01,39,10.40
2011,08,16,01,40,10.40
2011,08,16,01,41,10.40
2011,08,16,01,42,10.40
2011,08,16,01,43,10.40
2011,08,16,01,44,10.40
2011,08,16,01,45,10.40
2011,08,16,01,46,10.40
2011,08,16,01,47,10.40
2011,08,16,01,48,10.40
2011,08,16,01,49,10.40
2011,08,16,01,50,10.40
2011,08,16,01,51,10.40
2011,08,16,01,52,10.40
2011,08,16,01,53,10.40
2011,08,16,01,54,10.40
2011,08,16,01,55,10.40
2011,08,16,01,56,10.40
2011,08,16,01,57,10.30
2011,08,16,01,58,10.30
2011,08,16,01,59,10.30
2011,08,16,02,00,10.30
2011,08,16,02,01,10.30
2011,08,16,02,02,10.20
2011,08,16,02,03,10.20
2011,08,16,02,04,10.20
2011,08,16,02,05,10.20
2011,08,16,02,06,10.20
2011,08,16,02,07,10.20
2011,08,16,02,08,10.20
2011,08,16,02,09,10.20
2011,08,16,02,10,10.20
2011,08,16,02,11,10.10
2011,08,16,02,12,10.10
2011,08,16,02,13,10.10
2011,08,16,02,14,10.10
2011,08,16,02,15,10.10
2011,08,16,02,16,10.10
2011,08,16,02,17,10.00
2011,08,16,02,18,9.90
2011,08,16,02,19,9.90
2011,08,16,02,20,9.90
2011,08,16,02,21,9.90
2011,08,16,02,22,9.90
2011,08,16,02,23,9.90
2011,08,16,02,24,9.90
2011,08,16,02,25,9.90
2011,08,16,02,26,9.90
2011,08,16,02,27,9.90
2011,08,16,02,28,9.90
2011,08,16,02,29,9.90
2011,08,16,02,30,9.90
2011,08,16,02,31,9.90
2011,08,16,02,32,9.80
2011,08,16,02,33,9.80
2011,08,16,02,34,9.80
2011,08,16,02,35,9.80
2011,08,16,02,36,9.80
2011,08,16,02,37,9.70
2011,08,16,02,38,9.70
2011,08,16,02,39,9.70
2011,08,16,02,40,9.70
2011,08,16,02,41,9.70
2011,08,16,02,42,9.70
2011,08,16,02,43,9.70
2011,08,16,02,44,9.70
2011,08,16,02,45,9.70
2011,08,16,02,46,9.70
2011,08,16,02,47,9.70
2011,08,16,02,48,9.70
2011,08,16,02,49,9.70
2011,08,16,02,50,9.70
2011,08,16,02,51,9.70
2011,08,16,02,52,9.70
2011,08,16,02,53,9.70
2011,08,16,02,54,9.70
2011,08,16,02,55,9.70
2011,08,16,02,56,9.70
2011,08,16,02,57,9.70
2011,08,16,02,58,9.70
2011,08,16,02,59,9.70
2011,08,16,03,00,9.70
2011,08,16,03,01,9.60
2011,08,16,03,02,9.60
2011,08,16,03,03,9.60
2011,08,16,03,04,9.60
2011,08,16,03,05,9.50
2011,08,16,03,06,9.50
2011,08,16,03,07,9.50
2011,08,16,03,08,9.50
2011,08,16,03,09,9.50
2011,08,16,03,10,9.50
2011,08,16,03,11,9.50
2011,08,16,03,12,9.40
2011,08,16,03,13,9.40
2011,08,16,03,14,9.40
2011,08,16,03,15,9.40
2011,08,16,03,16,9.30
2011,08,16,03,17,9.30
2011,08,16,03,18,9.30
2011,08,16,03,19,9.30
2011,08,16,03,20,9.20
2011,08,16,03,21,9.20
2011,08,16,03,22,9.20
2011,08,16,03,23,9.20
2011,08,16,03,24,9.20
2011,08,16,03,25,9.20
2011,08,16,03,26,9.20
2011,08,16,03,27,9.20
2011,08,16,03,28,9.20
2011,08,16,03,29,9.20
2011,08,16,03,30,9.20
2011,08,16,03,31,9.20
2011,08,16,03,32,9.20
2011,08,16,03,33,9.20
2011,08,16,03,34,9.20
2011,08,16,03,35,9.20
2011,08,16,03,36,9.20
2011,08,16,03,37,9.20
2011,08,16,03,38,9.20
2011,08,16,03,39,9.20
2011,08,16,03,40,9.20
2011,08,16,03,41,9.20
2011,08,16,03,42,9.20
2011,08,16,03,43,9.20
2011,08,16,03,44,9.20
2011,08,16,03,45,9.20
2011,08,16,03,46,9.20
2011,08,16,03,47,9.20
2011,08,16,03,48,9.20
2011,08,16,03,49,9.20
2011,08,16,03,50,9.20
2011,08,16,03,51,9.20
2011,08,16,03,52,9.20
2011,08,16,03,53,9.20
2011,08,16,03,54,9.20
2011,08,16,03,55,9.10
2011,08,16,03,56,9.10
2011,08,16,03,57,9.10
2011,08,16,03,58,9.10
2011,08,16,03,59,9.10
2011,08,16,04,00,9.10
2011,08,16,04,01,9.10
2011,08,16,04,02,9.00
2011,08,16,04,03,9.00
2011,08,16,04,04,9.00
2011,08,16,04,05,9.00
2011,08,16,04,06,9.00
2011,08,16,04,07,9.00
2011,08,16,04,08,9.00
2011,08,16,04,09,9.00
2011,08,16,04,10,9.00
2011,08,16,04,11,9.00
2011,08,16,04,12,9.00
2011,08,16,04,13,9.00
2011,08,16,04,14,9.00
2011,08,16,04,15,9.00
2011,08,16,04,16,9.00
2011,08,16,04,17,9.00
2011,08,16,04,18,8.90
2011,08,16,04,19,8.90
2011,08,16,04,20,8.90
2011,08,16,04,21,8.90
2011,08,16,04,22,8.90
2011,08,16,04,23,8.80
2011,08,16,04,24,8.80
2011,08,16,04,25,8.80
2011,08,16,04,26,8.70
2011,08,16,04,27,8.70
2011,08,16,04,28,8.70
2011,08,16,04,29,8.70
2011,08,16,04,30,8.70
2011,08,16,04,31,8.70
2011,08,16,04,32,8.70
2011,08,16,04,33,8.70
2011,08,16,04,34,8.70
2011,08,16,04,35,8.60
2011,08,16,04,36,8.60
2011,08,16,04,37,8.60
2011,08,16,04,38,8.60
2011,08,16,04,39,8.60
2011,08,16,04,40,8.60
2011,08,16,04,41,8.70
2011,08,16,04,42,8.70
2011,08,16,04,43,8.70
2011,08,16,04,44,8.70
2011,08,16,04,45,8.60
2011,08,16,04,46,8.60
2011,08,16,04,47,8.60
2011,08,16,04,48,8.60
2011,08,16,04,49,8.50
2011,08,16,04,50,8.50
2011,08,16,04,51,8.50
2011,08,16,04,52,8.50
2011,08,16,04,53,8.50
2011,08,16,04,54,8.50
2011,08,16,04,55,8.60
2011,08,16,04,56,8.60
2011,08,16,04,57,8.60
2011,08,16,04,58,8.60
2011,08,16,04,59,8.60
2011,08,16,05,00,8.60
2011,08,16,05,01,8.60
2011,08,16,05,02,8.60
2011,08,16,05,03,8.60
2011,08,16,05,04,8.50
2011,08,16,05,05,8.50
2011,08,16,05,06,8.50
2011,08,16,05,07,8.50
2011,08,16,05,08,8.50
2011,08,16,05,09,8.50
2011,08,16,05,10,8.50
2011,08,16,05,11,8.40
2011,08,16,05,12,8.40
2011,08,16,05,13,8.40
2011,08,16,05,14,8.40
2011,08,16,05,15,8.40
2011,08,16,05,16,8.40
2011,08,16,05,17,8.40
2011,08,16,05,18,8.50
2011,08,16,05,19,8.50
2011,08,16,05,20,8.50
2011,08,16,05,21,8.50
2011,08,16,05,22,8.40
2011,08,16,05,23,8.40
2011,08,16,05,24,8.40
2011,08,16,05,25,8.40
2011,08,16,05,26,8.40
2011,08,16,05,27,8.40
2011,08,16,05,28,8.40
2011,08,16,05,29,8.40
2011,08,16,05,30,8.40
2011,08,16,05,31,8.40
2011,08,16,05,32,8.40
2011,08,16,05,33,8.30
2011,08,16,05,34,8.30
2011,08,16,05,35,8.30
2011,08,16,05,36,8.30
2011,08,16,05,37,8.30
2011,08,16,05,38,8.30
2011,08,16,05,39,8.30
2011,08,16,05,40,8.20
2011,08,16,05,41,8.20
2011,08,16,05,42,8.20
2011,08,16,05,43,8.20
2011,08,16,05,44,8.20
2011,08,16,05,45,8.20
2011,08,16,05,46,8.20
2011,08,16,05,47,8.20
2011,08,16,05,48,8.30
2011,08,16,05,49,8.30
2011,08,16,05,50,8.20
2011,08,16,05,51,8.20
2011,08,16,05,52,8.20
2011,08,16,05,53,8.20
2011,08,16,05,54,8.20
2011,08,16,05,55,8.20
2011,08,16,05,56,8.20
2011,08,16,05,57,8.20
2011,08,16,05,58,8.20
2011,08,16,05,59,8.20
2011,08,16,06,00,8.20
2011,08,16,06,01,8.20
2011,08,16,06,02,8.20
2011,08,16,06,03,8.20
2011,08,16,06,04,8.10
2011,08,16,06,05,8.10
2011,08,16,06,06,8.10
2011,08,16,06,07,8.20
2011,08,16,06,08,8.20
2011,08,16,06,09,8.20
2011,08,16,06,10,8.20
2011,08,16,06,11,8.20
2011,08,16,06,12,8.20
2011,08,16,06,13,8.20
2011,08,16,06,14,8.20
2011,08,16,06,15,8.20
2011,08,16,06,16,8.20
2011,08,16,06,17,8.20
2011,08,16,06,18,8.20
2011,08,16,06,19,8.20
2011,08,16,06,20,8.20
2011,08,16,06,21,8.20
2011,08,16,06,22,8.20
2011,08,16,06,23,8.20
2011,08,16,06,24,8.20
2011,08,16,06,25,8.20
2011,08,16,06,26,8.20
2011,08,16,06,27,8.20
2011,08,16,06,28,8.20
2011,08,16,06,29,8.10
2011,08,16,06,30,8.10
2011,08,16,06,31,8.10
2011,08,16,06,32,8.10
2011,08,16,06,33,8.10
2011,08,16,06,34,8.10
2011,08,16,06,35,8.10
2011,08,16,06,36,8.10
2011,08,16,06,37,8.20
2011,08,16,06,38,8.20
2011,08,16,06,39,8.20
2011,08,16,06,40,8.20
2011,08,16,06,41,8.20
2011,08,16,06,42,8.20
2011,08,16,06,43,8.20
2011,08,16,06,44,8.20
2011,08,16,06,45,8.20
2011,08,16,06,46,8.30
2011,08,16,06,47,8.30
2011,08,16,06,48,8.30
2011,08,16,06,49,8.40
2011,08,16,06,50,8.50
2011,08,16,06,51,8.50
2011,08,16,06,52,8.50
2011,08,16,06,53,8.50
2011,08,16,06,54,8.60
2011,08,16,06,55,8.60
2011,08,16,06,56,8.60
2011,08,16,06,57,8.60
2011,08,16,06,58,8.60
2011,08,16,06,59,8.70
2011,08,16,07,00,8.70
2011,08,16,07,01,8.70
2011,08,16,07,02,8.70
2011,08,16,07,03,8.70
2011,08,16,07,04,8.80
2011,08,16,07,05,8.80
2011,08,16,07,06,8.90
2011,08,16,07,07,8.90
2011,08,16,07,08,8.90
2011,08,16,07,09,9.00
2011,08,16,07,10,9.10
2011,08,16,07,11,9.20
2011,08,16,07,12,9.30
2011,08,16,07,13,9.40
2011,08,16,07,14,9.60
2011,08,16,07,15,9.70
2011,08,16,07,16,9.80
2011,08,16,07,17,10.00
2011,08,16,07,18,10.10
2011,08,16,07,19,10.30
2011,08,16,07,20,10.40
2011,08,16,07,21,10.60
2011,08,16,07,22,10.70
2011,08,16,07,23,10.80
2011,08,16,07,24,10.80
2011,08,16,07,25,10.90
2011,08,16,07,26,10.90
2011,08,16,07,27,11.00
2011,08,16,07,28,11.10
2011,08,16,07,29,11.10
2011,08,16,07,30,11.20
2011,08,16,07,31,11.20
2011,08,16,07,32,11.20
2011,08,16,07,33,11.30
2011,08,16,07,34,11.30
2011,08,16,07,35,11.40
2011,08,16,07,36,11.40
2011,08,16,07,37,11.40
2011,08,16,07,38,11.50
2011,08,16,07,39,11.60
2011,08,16,07,40,11.60
2011,08,16,07,41,11.60
2011,08,16,07,42,11.60
2011,08,16,07,43,11.70
2011,08,16,07,44,11.70
2011,08,16,07,45,11.80
2011,08,16,07,46,11.80
2011,08,16,07,47,11.80
2011,08,16,07,48,11.80
2011,08,16,07,49,11.80
2011,08,16,07,50,11.80
2011,08,16,07,51,11.90
2011,08,16,07,52,11.90
2011,08,16,07,53,11.90
2011,08,16,07,54,11.90
2011,08,16,07,55,12.00
2011,08,16,07,56,12.00
2011,08,16,07,57,12.00
2011,08,16,07,58,12.00
2011,08,16,07,59,12.00
2011,08,16,08,00,12.00
2011,08,16,08,01,12.00
2011,08,16,08,02,12.10
2011,08,16,08,03,12.10
2011,08,16,08,04,12.10
2011,08,16,08,05,12.20
2011,08,16,08,06,12.20
2011,08,16,08,07,12.20
2011,08,16,08,08,12.30
2011,08,16,08,09,12.30
2011,08,16,08,10,12.30
2011,08,16,08,11,12.30
2011,08,16,08,12,12.30
2011,08,16,08,13,12.40
2011,08,16,08,14,12.40
2011,08,16,08,15,12.40
2011,08,16,08,16,12.50
2011,08,16,08,17,12.50
2011,08,16,08,18,12.60
2011,08,16,08,19,12.60
2011,08,16,08,20,12.70
2011,08,16,08,21,12.70
2011,08,16,08,22,12.80
2011,08,16,08,23,12.80
2011,08,16,08,24,12.80
2011,08,16,08,25,12.80
2011,08,16,08,26,12.80
2011,08,16,08,27,12.80
2011,08,16,08,28,12.90
2011,08,16,08,29,13.00
2011,08,16,08,30,13.00
2011,08,16,08,31,13.10
2011,08,16,08,32,13.10
2011,08,16,08,33,13.10
2011,08,16,08,34,13.20
2011,08,16,08,35,13.20
2011,08,16,08,36,13.20
2011,08,16,08,37,13.30
2011,08,16,08,38,13.30
2011,08,16,08,39,13.30
2011,08,16,08,40,13.30
2011,08,16,08,41,13.40
2011,08,16,08,42,13.40
2011,08,16,08,43,13.40
2011,08,16,08,44,13.40
2011,08,16,08,45,13.50
2011,08,16,08,46,13.50
2011,08,16,08,47,13.50
2011,08,16,08,48,13.50
2011,08,16,08,49,13.50
2011,08,16,08,50,13.50
2011,08,16,08,51,13.50
2011,08,16,08,52,13.50
2011,08,16,08,53,13.60
2011,08,16,08,54,13.60
2011,08,16,08,55,13.70
2011,08,16,08,56,13.70
2011,08,16,08,57,13.70
2011,08,16,08,58,13.70
2011,08,16,08,59,13.70
2011,08,16,09,00,13.70
2011,08,16,09,01,13.70
2011,08,16,09,02,13.80
2011,08,16,09,03,13.80
2011,08,16,09,04,13.90
2011,08,16,09,05,13.90
2011,08,16,09,06,14.00
2011,08,16,09,07,14.10
2011,08,16,09,08,14.10
2011,08,16,09,09,14.20
2011,08,16,09,10,14.30
2011,08,16,09,11,14.40
2011,08,16,09,12,14.50
2011,08,16,09,13,14.50
2011,08,16,09,14,14.60
2011,08,16,09,15,14.60
2011,08,16,09,16,14.70
2011,08,16,09,17,14.70
2011,08,16,09,18,14.80
2011,08,16,09,19,14.80
2011,08,16,09,20,14.90
2011,08,16,09,21,14.90
2011,08,16,09,22,14.90
2011,08,16,09,23,14.90
2011,08,16,09,24,14.90
2011,08,16,09,25,14.90
2011,08,16,09,26,14.90
2011,08,16,09,27,15.00
2011,08,16,09,28,15.00
2011,08,16,09,29,15.00
2011,08,16,09,30,15.00
2011,08,16,09,31,15.00
2011,08,16,09,32,15.00
2011,08,16,09,33,15.10
2011,08,16,09,34,15.10
2011,08,16,09,35,15.20
2011,08,16,09,36,15.20
2011,08,16,09,37,15.30
2011,08,16,09,38,15.30
2011,08,16,09,39,15.30
2011,08,16,09,40,15.30
2011,08,16,09,41,15.30
2011,08,16,09,42,15.30
2011,08,16,09,43,15.30
2011,08,16,09,44,15.30
2011,08,16,09,45,15.30
2011,08,16,09,46,15.30
2011,08,16,09,47,15.30
2011,08,16,09,48,15.30
2011,08,16,09,49,15.30
2011,08,16,09,50,15.30
2011,08,16,09,51,15.30
2011,08,16,09,52,15.30
2011,08,16,09,53,15.20
2011,08,16,09,54,15.20
2011,08,16,09,55,15.20
2011,08,16,09,56,15.20
2011,08,16,09,57,15.30
2011,08,16,09,58,15.30
2011,08,16,09,59,15.30
2011,08,16,10,00,15.40
2011,08,16,10,01,15.50
2011,08,16,10,02,15.60
2011,08,16,10,03,15.70
2011,08,16,10,04,15.80
2011,08,16,10,05,15.80
2011,08,16,10,06,15.80
2011,08,16,10,07,15.80
2011,08,16,10,08,15.80
2011,08,16,10,09,15.80
2011,08,16,10,10,15.80
2011,08,16,10,11,15.80
2011,08,16,10,12,15.80
2011,08,16,10,13,15.80
2011,08,16,10,14,15.80
2011,08,16,10,15,15.70
2011,08,16,10,16,15.70
2011,08,16,10,17,15.70
2011,08,16,10,18,15.60
2011,08,16,10,19,15.60
2011,08,16,10,20,15.70
2011,08,16,10,21,15.80
2011,08,16,10,22,15.70
2011,08,16,10,23,15.80
2011,08,16,10,24,15.80
2011,08,16,10,25,15.80
2011,08,16,10,26,15.80
2011,08,16,10,27,15.80
2011,08,16,10,28,15.80
2011,08,16,10,29,15.80
2011,08,16,10,30,15.80
2011,08,16,10,31,15.80
2011,08,16,10,32,15.80
2011,08,16,10,33,15.80
2011,08,16,10,34,15.80
2011,08,16,10,35,15.80
2011,08,16,10,36,15.80
2011,08,16,10,37,15.80
2011,08,16,10,38,15.80
2011,08,16,10,39,15.80
2011,08,16,10,40,15.90
2011,08,16,10,41,15.90
2011,08,16,10,42,15.90
2011,08,16,10,43,15.90
2011,08,16,10,44,15.90
2011,08,16,10,45,15.90
2011,08,16,10,46,16.00
2011,08,16,10,47,16.10
2011,08,16,10,48,16.10
2011,08,16,10,49,16.30
2011,08,16,10,50,16.40
2011,08,16,10,51,16.40
2011,08,16,10,52,16.40
2011,08,16,10,53,16.40
2011,08,16,10,54,16.40
2011,08,16,10,55,16.30
2011,08,16,10,56,16.30
2011,08,16,10,57,16.30
2011,08,16,10,58,16.40
2011,08,16,10,59,16.40
2011,08,16,11,00,16.50
2011,08,16,11,01,16.60
2011,08,16,11,02,16.70
2011,08,16,11,03,16.70
2011,08,16,11,04,16.70
2011,08,16,11,05,16.70
2011,08,16,11,06,16.70
2011,08,16,11,07,16.70
2011,08,16,11,08,16.70
2011,08,16,11,09,16.70
2011,08,16,11,10,16.70
2011,08,16,11,11,16.70
2011,08,16,11,12,16.70
2011,08,16,11,13,16.70
2011,08,16,11,14,16.70
2011,08,16,11,15,16.80
2011,08,16,11,16,16.80
2011,08,16,11,17,16.90
2011,08,16,11,18,16.90
2011,08,16,11,19,17.00
2011,08,16,11,20,17.00
2011,08,16,11,21,17.10
2011,08,16,11,22,17.20
2011,08,16,11,23,17.30
2011,08,16,11,24,17.30
2011,08,16,11,25,17.30
2011,08,16,11,26,17.30
2011,08,16,11,27,17.30
2011,08,16,11,28,17.40
2011,08,16,11,29,17.40
2011,08,16,11,30,17.40
2011,08,16,11,31,17.50
2011,08,16,11,32,17.50
2011,08,16,11,33,17.50
2011,08,16,11,34,17.50
2011,08,16,11,35,17.60
2011,08,16,11,36,17.70
2011,08,16,11,37,17.70
2011,08,16,11,38,17.80
2011,08,16,11,39,17.80
2011,08,16,11,40,17.80
2011,08,16,11,41,17.80
2011,08,16,11,42,17.90
2011,08,16,11,43,17.90
2011,08,16,11,44,17.90
2011,08,16,11,45,17.90
2011,08,16,11,46,17.90
2011,08,16,11,47,17.90
2011,08,16,11,48,17.90
2011,08,16,11,49,17.90
2011,08,16,11,50,17.90
2011,08,16,11,51,17.90
2011,08,16,11,52,17.90
2011,08,16,11,53,17.90
2011,08,16,11,54,17.90
2011,08,16,11,55,18.00
2011,08,16,11,56,18.10
2011,08,16,11,57,18.10
2011,08,16,11,58,18.20
2011,08,16,11,59,18.20
2011,08,16,12,00,18.30
2011,08,16,12,01,18.40
2011,08,16,12,02,18.40
2011,08,16,12,03,18.50
2011,08,16,12,04,18.60
2011,08,16,12,05,18.60
2011,08,16,12,06,18.60
2011,08,16,12,07,18.70
2011,08,16,12,08,18.70
2011,08,16,12,09,18.70
2011,08,16,12,10,18.70
2011,08,16,12,11,18.80
2011,08,16,12,12,18.90
2011,08,16,12,13,18.90
2011,08,16,12,14,18.90
2011,08,16,12,15,18.90
2011,08,16,12,16,19.00
2011,08,16,12,17,19.10
2011,08,16,12,18,19.10
2011,08,16,12,19,19.10
2011,08,16,12,20,19.10
2011,08,16,12,21,19.00
2011,08,16,12,22,18.90
2011,08,16,12,23,18.90
2011,08,16,12,24,19.00
2011,08,16,12,25,19.10
2011,08,16,12,26,19.10
2011,08,16,12,27,19.10
2011,08,16,12,28,19.10
2011,08,16,12,29,19.20
2011,08,16,12,30,19.20
2011,08,16,12,31,19.10
2011,08,16,12,32,19.10
2011,08,16,12,33,19.10
2011,08,16,12,34,19.10
2011,08,16,12,35,19.10
2011,08,16,12,36,19.00
2011,08,16,12,37,18.90
2011,08,16,12,38,18.90
2011,08,16,12,39,19.00
2011,08,16,12,40,19.10
2011,08,16,12,41,19.10
2011,08,16,12,42,19.10
2011,08,16,12,43,19.10
2011,08,16,12,44,19.10
2011,08,16,12,45,19.10
2011,08,16,12,46,19.10
2011,08,16,12,47,19.20
2011,08,16,12,48,19.30
2011,08,16,12,49,19.30
2011,08,16,12,50,19.30
2011,08,16,12,51,19.30
2011,08,16,12,52,19.40
2011,08,16,12,53,19.40
2011,08,16,12,54,19.40
2011,08,16,12,55,19.40
2011,08,16,12,56,19.40
2011,08,16,12,57,19.40
2011,08,16,12,58,19.40
2011,08,16,12,59,19.50
2011,08,16,13,00,19.60
2011,08,16,13,01,19.80
2011,08,16,13,02,19.90
2011,08,16,13,03,20.00
2011,08,16,13,04,20.10
2011,08,16,13,05,20.30
2011,08,16,13,06,20.50
2011,08,16,13,07,20.50
2011,08,16,13,08,20.70
2011,08,16,13,09,20.80
2011,08,16,13,10,20.80
2011,08,16,13,11,20.80
2011,08,16,13,12,20.80
2011,08,16,13,13,20.70
2011,08,16,13,14,20.70
2011,08,16,13,15,20.70
2011,08,16,13,16,20.60
2011,08,16,13,17,20.50
2011,08,16,13,18,20.40
2011,08,16,13,19,20.30
2011,08,16,13,20,20.20
2011,08,16,13,21,20.20
2011,08,16,13,22,20.20
2011,08,16,13,23,20.30
2011,08,16,13,24,20.40
2011,08,16,13,25,20.40
2011,08,16,13,26,20.40
2011,08,16,13,27,20.50
2011,08,16,13,28,20.50
2011,08,16,13,29,20.60
2011,08,16,13,30,20.60
2011,08,16,13,31,20.60
2011,08,16,13,32,20.60
2011,08,16,13,33,20.60
2011,08,16,13,34,20.50
2011,08,16,13,35,20.50
2011,08,16,13,36,20.40
2011,08,16,13,37,20.40
2011,08,16,13,38,20.50
2011,08,16,13,39,20.60
2011,08,16,13,40,20.50
2011,08,16,13,41,20.50
2011,08,16,13,42,20.50
2011,08,16,13,43,20.50
2011,08,16,13,44,20.70
2011,08,16,13,45,20.80
2011,08,16,13,46,20.80
2011,08,16,13,47,20.70
2011,08,16,13,48,20.60
2011,08,16,13,49,20.60
2011,08,16,13,50,20.50
2011,08,16,13,51,20.50
2011,08,16,13,52,20.60
2011,08,16,13,53,20.70
2011,08,16,13,54,20.80
2011,08,16,13,55,20.90
2011,08,16,13,56,20.90
2011,08,16,13,57,20.90
2011,08,16,13,58,21.00
2011,08,16,13,59,21.00
2011,08,16,14,00,21.00
2011,08,16,14,01,21.10
2011,08,16,14,02,21.20
2011,08,16,14,03,21.20
2011,08,16,14,04,21.20
2011,08,16,14,05,21.30
2011,08,16,14,06,21.30
2011,08,16,14,07,21.30
2011,08,16,14,08,21.30
2011,08,16,14,09,21.40
2011,08,16,14,10,21.60
2011,08,16,14,11,21.60
2011,08,16,14,12,21.70
2011,08,16,14,13,21.70
2011,08,16,14,14,21.70
2011,08,16,14,15,21.80
2011,08,16,14,16,21.80
2011,08,16,14,17,21.70
2011,08,16,14,18,21.60
2011,08,16,14,19,21.40
2011,08,16,14,20,21.40
2011,08,16,14,21,21.30
2011,08,16,14,22,21.30
2011,08,16,14,23,21.30
2011,08,16,14,24,21.30
2011,08,16,14,25,21.20
2011,08,16,14,26,21.20
2011,08,16,14,27,21.20
2011,08,16,14,28,21.10
2011,08,16,14,29,21.10
2011,08,16,14,30,21.10
2011,08,16,14,31,21.20
2011,08,16,14,32,21.20
2011,08,16,14,33,21.20
2011,08,16,14,34,21.30
2011,08,16,14,35,21.30
2011,08,16,14,36,21.40
2011,08,16,14,37,21.60
2011,08,16,14,38,21.70
2011,08,16,14,39,21.60
2011,08,16,14,40,21.60
2011,08,16,14,41,21.70
2011,08,16,14,42,21.70
2011,08,16,14,43,21.70
2011,08,16,14,44,21.50
2011,08,16,14,45,21.40
2011,08,16,14,46,21.30
2011,08,16,14,47,21.40
2011,08,16,14,48,21.50
2011,08,16,14,49,21.50
2011,08,16,14,50,21.50
2011,08,16,14,51,21.70
2011,08,16,14,52,21.60
2011,08,16,14,53,21.60
2011,08,16,14,54,21.60
2011,08,16,14,55,21.70
2011,08,16,14,56,21.80
2011,08,16,14,57,21.80
2011,08,16,14,58,21.80
2011,08,16,14,59,21.70
2011,08,16,15,00,21.70
2011,08,16,15,01,21.60
2011,08,16,15,02,21.60
2011,08,16,15,03,21.60
2011,08,16,15,04,21.60
2011,08,16,15,05,21.60
2011,08,16,15,06,21.60
2011,08,16,15,07,21.70
2011,08,16,15,08,21.80
2011,08,16,15,09,21.80
2011,08,16,15,10,21.80
2011,08,16,15,11,21.90
2011,08,16,15,12,21.90
2011,08,16,15,13,22.00
2011,08,16,15,14,21.90
2011,08,16,15,15,22.00
2011,08,16,15,16,22.00
2011,08,16,15,17,21.90
2011,08,16,15,18,21.80
2011,08,16,15,19,21.70
2011,08,16,15,20,21.70
2011,08,16,15,21,21.70
2011,08,16,15,22,21.70
2011,08,16,15,23,21.80
2011,08,16,15,24,21.80
2011,08,16,15,25,21.90
2011,08,16,15,26,21.80
2011,08,16,15,27,21.70
2011,08,16,15,28,21.60
2011,08,16,15,29,21.60
2011,08,16,15,30,21.80
2011,08,16,15,31,21.90
2011,08,16,15,32,22.20
2011,08,16,15,33,22.30
2011,08,16,15,34,22.30
2011,08,16,15,35,22.40
2011,08,16,15,36,22.40
2011,08,16,15,37,22.60
2011,08,16,15,38,22.70
2011,08,16,15,39,22.70
2011,08,16,15,40,22.80
2011,08,16,15,41,22.90
2011,08,16,15,42,22.80
2011,08,16,15,43,22.70
2011,08,16,15,44,22.70
2011,08,16,15,45,22.70
2011,08,16,15,46,22.70
2011,08,16,15,47,22.60
2011,08,16,15,48,22.60
2011,08,16,15,49,22.50
2011,08,16,15,50,22.40
2011,08,16,15,51,22.30
2011,08,16,15,52,22.20
2011,08,16,15,53,22.20
2011,08,16,15,54,22.20
2011,08,16,15,55,22.10
2011,08,16,15,56,22.10
2011,08,16,15,57,22.20
2011,08,16,15,58,22.10
2011,08,16,15,59,22.10
2011,08,16,16,00,22.30
2011,08,16,16,01,22.30
2011,08,16,16,02,22.30
2011,08,16,16,03,22.20
2011,08,16,16,04,22.10
2011,08,16,16,05,22.10
2011,08,16,16,06,22.20
2011,08,16,16,07,22.30
2011,08,16,16,08,22.50
2011,08,16,16,09,22.50
2011,08,16,16,10,22.50
2011,08,16,16,11,22.50
2011,08,16,16,12,22.50
2011,08,16,16,13,22.40
2011,08,16,16,14,22.40
2011,08,16,16,15,22.30
2011,08,16,16,16,22.20
2011,08,16,16,17,22.30
2011,08,16,16,18,22.40
2011,08,16,16,19,22.50
2011,08,16,16,20,22.60
2011,08,16,16,21,22.40
2011,08,16,16,22,22.10
2011,08,16,16,23,21.90
2011,08,16,16,24,21.80
2011,08,16,16,25,21.80
2011,08,16,16,26,21.70
2011,08,16,16,27,21.80
2011,08,16,16,28,21.80
2011,08,16,16,29,21.80
2011,08,16,16,30,22.00
2011,08,16,16,31,22.10
2011,08,16,16,32,22.20
2011,08,16,16,33,22.20
2011,08,16,16,34,22.10
2011,08,16,16,35,22.20
2011,08,16,16,36,22.20
2011,08,16,16,37,22.20
2011,08,16,16,38,22.20
2011,08,16,16,39,22.10
2011,08,16,16,40,22.00
2011,08,16,16,41,21.90
2011,08,16,16,42,21.80
2011,08,16,16,43,21.80
2011,08,16,16,44,21.80
2011,08,16,16,45,21.60
2011,08,16,16,46,21.60
2011,08,16,16,47,21.60
2011,08,16,16,48,21.60
2011,08,16,16,49,21.60
2011,08,16,16,50,21.80
2011,08,16,16,51,21.70
2011,08,16,16,52,21.80
2011,08,16,16,53,21.80
2011,08,16,16,54,21.80
2011,08,16,16,55,21.90
2011,08,16,16,56,21.90
2011,08,16,16,57,21.80
2011,08,16,16,58,21.80
2011,08,16,16,59,21.70
2011,08,16,17,00,21.70
2011,08,16,17,01,21.80
2011,08,16,17,02,21.80
2011,08,16,17,03,21.70
2011,08,16,17,04,21.60
2011,08,16,17,05,21.60
2011,08,16,17,06,21.60
2011,08,16,17,07,21.60
2011,08,16,17,08,21.60
2011,08,16,17,09,21.80
2011,08,16,17,10,21.90
2011,08,16,17,11,21.80
2011,08,16,17,12,21.70
2011,08,16,17,13,21.80
2011,08,16,17,14,21.90
2011,08,16,17,15,22.00
2011,08,16,17,16,22.00
2011,08,16,17,17,22.10
2011,08,16,17,18,22.10
2011,08,16,17,19,22.10
2011,08,16,17,20,22.00
2011,08,16,17,21,22.00
2011,08,16,17,22,21.90
2011,08,16,17,23,21.90
2011,08,16,17,24,21.90
2011,08,16,17,25,21.90
2011,08,16,17,26,22.00
2011,08,16,17,27,22.00
2011,08,16,17,28,21.90
2011,08,16,17,29,22.00
2011,08,16,17,30,22.00
2011,08,16,17,31,22.00
2011,08,16,17,32,22.10